Regional Weather Roundup
Issued by NWS

Home | Current Version | Previous Version | Text Only | Print | Product List | Glossary On
Versions: 1 2 3 4 5 6 7 8 9 10 11 12 13 14 15 16 17 18 19 20 21 22 23 24 25 26 27 28 29 30 31 32 33 34 35 36 37 38 39 40 41 42 43 44 45 46 47 48 49 50
183
ASUS43 KDTX 100510
RWRMI
MICHIGAN HOURLY REGIONAL WEATHER ROUNDUP
NATIONAL WEATHER SERVICE DETROIT/PONTIAC MI
1200 AM EST SAT DEC 10 2016

NOTE: "FAIR" INDICATES FEW OR NO CLOUDS BELOW 12,000 FEET WITH NO
SIGNIFICANT WEATHER AND/OR OBSTRUCTION TO VISIBILITY.

MIZ047>049-052>055-059>063-066>070-074>076-081>083-100600-
SOUTHEAST LOWER MICHIGAN

CITY           SKY/WX    TMP DP  RH WIND       PRES   REMARKS
ADRIAN         FLURRIES  23  20  88 W9        30.44S WCI  13
ALMA           CLOUDY    24  16  69 W7        30.40R WCI  16
ANN ARBOR      FLURRIES  24  20  84 SW12      30.41S WCI  13
BAD AXE        LGT SNOW  25  19  80 W10       30.35S WCI  14
CARO           CLOUDY    24  18  77 SW8       30.37S WCI  15
DETROIT CITY   CLOUDY    26  16  65 W9        30.41R WCI  17
DETROIT        FLURRIES  25  20  81 SW15G22   30.42S WCI  13
FLINT          CLOUDY    24  17  74 W10       30.39S WCI  14
GROSSE ILE     FLURRIES  26  20  80 W8        30.41F WCI  17
HILLSDALE      CLOUDY    21  18  86 W10       30.40S WCI  10
HOWELL         CLOUDY    23  18  80 W9        30.39S WCI  13

CITY           SKY/WX    TMP DP  RH WIND       PRES   REMARKS
JACKSON        LGT SNOW  22  18  85 W13       30.41S WCI  10
LAMBERTVILLE   FLURRIES  27  20  76 W8G16     30.44F WCI  18
LANSING        CLOUDY    23  18  81 W10       30.42R WCI  12
LAPEER         NOT AVBL
MASON          LGT SNOW  23  21  93 W3        30.41S
MONROE         FLURRIES  26  21  83 W13       30.42F WCI  15
MT. CLEMENS    CLOUDY    26  15  64 W10       30.37R WCI  16
PONTIAC        CLOUDY    23  16  74 W10       30.37S WCI  12
PORT HOPE        N/A     26  21  81 W9G20     30.30S WCI  17
PORT HURON     CLOUDY    27  18  69 W6        30.37S WCI  20
TRI CITIES     CLOUDY    24  18  77 W13       30.39R WCI  12
MIDLAND        CLOUDY    25  15  66 W6        30.38R WCI  18
TROY           CLOUDY    26  15  62 W9        30.41S WCI  17
SAGINAW HB     CLOUDY    27  18  69 SW10G16   30.38S WCI  17
$$
MIZ043>046-050>051-056>058-064>065-071>073-077>080-100600-
SOUTHWEST LOWER MICHIGAN

CITY           SKY/WX    TMP DP  RH WIND       PRES   REMARKS
BATTLE CREEK   FLURRIES  22  20  92 SW9       30.42F WCI  12
BENTON HARBOR  CLOUDY    27  13  55 W8        30.47R WCI  19
BIG RAPIDS     CLOUDY    22  16  78 W8        30.37S WCI  13
COLDWATER      CLOUDY    22  18  86 W12       30.43S WCI  10
FREMONT        FLURRIES  23  18  82 W6        30.41R WCI  15
HOLLAND        CLOUDY    26  13  57 NW9       30.44R WCI  17
GRAND RAPIDS   FLURRIES  23  19  85 W5        30.42S WCI  17
IONIA          FLURRIES  22  20  91 W7        30.40S WCI  14
KALAMAZOO      LGT SNOW  22  17  81 SW8       30.43F WCI  12
LUDINGTON      CLOUDY    24  12  61 W8G17     30.40S WCI  15
MARSHALL       LGT SNOW  22  20  90 SW10      30.42S WCI  11
MOUNT PLEASANT CLOUDY    24  16  73 W9        30.38R WCI  14
MUSKEGON       CLOUDY    26  12  55 NW12G22   30.43S WCI  16
SOUTH HAVEN    CLOUDY    27  14  56 W9        30.45S WCI  18
$$
MIZ016>042-100600-
NORTHERN LOWER MICHIGAN

CITY           SKY/WX    TMP DP  RH WIND       PRES   REMARKS
ALPENA         CLOUDY    21  17  84 CALM      30.32F
BEAVER ISLAND  CLOUDY    23  15  71 NW10G17   30.33S WCI  12
BELLAIRE       LGT SNOW  24  22  95 CALM      30.35R
CADILLAC       FLURRIES  19  17  89 SW6       30.31S WCI  11
CHARLEVOIX     FLURRIES  26  16  65 NW10G18   30.35S WCI  16
FRANKFORT      FLURRIES  25  16  69 W15       30.37S WCI  12
GAYLORD        LGT SNOW  21  16  81 W7        30.28R WCI  12
GRAYLING       LGT SNOW  22  19  89 NW3       30.31R VSB 1
HARBOR SPRINGS CLOUDY    21  18  90 E5        30.32S WCI  14
HOUGHTON LAKE  CLOUDY    20  17  88 W9        30.32S WCI   9
MANISTEE       FLURRIES  24  13  62 W14       30.39R WCI  12
OSCODA         FLURRIES  25  20  82 W5        30.32S WCI  20
PELLSTON       LGT SNOW  21  18  88 CALM      30.33S VSB 1
ROGERS CITY    CLOUDY    22  18  83 W3        30.32F
TRAVERSE CITY  PTCLDY    19  16  88 CALM      30.35S
$$
MIZ007>008-015-100600-
EASTERN UPPER MICHIGAN

CITY           SKY/WX    TMP DP  RH WIND       PRES   REMARKS
KINROSS        PTCLDY    11   9  92 SE3       30.31S
MACKINAC ISLAN CLOUDY    21  14  75 NW5       30.30F WCI  15
NEWBERRY       CLOUDY    16  15  95 W10       30.30S WCI   4
S. S. MARIE    LGT SNOW  18  15  88 SE5       30.30S FOG     WCI  11
MUNISING         N/A     13   5  70 SW6       30.35R WCI   4
$$
MIZ004>006-011>014-085-100600-
CENTRAL UPPER MICHIGAN

CITY           SKY/WX    TMP DP  RH WIND       PRES   REMARKS
MANISTIQUE     CLOUDY    15   9  78 W14G20    30.35S WCI   0
ESCANABA       CLEAR     14   7  73 W7        30.39S WCI   4
MENOMINEE      CLOUDY    18   7  62 W3        30.42S
SAWYER-GWINN   CLEAR     10   4  77 W10       30.32R WCI  -4
$$
MIZ001>003-009>011-084-100600-
WESTERN UPPER MICHIGAN

CITY           SKY/WX    TMP DP  RH WIND       PRES   REMARKS
IRON MOUNTAIN  CLOUDY    13   4  67 NW6       30.34F WCI   4
HOUGHTON       LGT SNOW  14   9  80 W10       30.30S VSB 1   WCI   1
COPPER HARBOR    N/A     19  16  88 CALM      30.32S
IRONWOOD       FLURRIES   9   3  77 W12       30.39S WCI  -6
$$

ABBREVIATIONS USED IN REMARKS
   TC - TEMPERATURE IN CELSIUS
  WCI - WIND CHILL INDEX
   HX - HEAT INDEX
  VSB - VISIBILITY





USA.gov is the U.S. government's official web portal to all federal, state and local government web resources and services.